sat.trackr.live / text

‹ back to catalog

STARLINK-32211

NORAD 60270 · 2024-131R

PAYLOAD ACTIVE UNKNOWN

§ Identity

Operator
Country
US
Launch date
2024-07-27
Launch site
AFETR
Launch vehicle
Mass (kg)
RCS (m²)

Purposes: comms

External: N2YO · Heavens-Above · Gunter

§ Orbital elements

Epoch: 2026-05-25T04:02:43.397376Z

Period
94.11 min
Inclination
53.1611°
Eccentricity
0.0001186
Mean motion
15.30194987 rev/d
Perigee alt
474.4 km
Apogee alt
476.0 km
Semi-major
6,853.4 km
B*
4.1795e-5
RAAN
57.5055°
Arg perigee
75.2701°
Mean anomaly
284.8431°
Rev number
10,342

§ Raw data

STARLINK-322111 60270U 24131R   26145.16855784  .00000879  00000+0  41795-4 0  99912 60270  53.1611  57.5055 0001186  75.2701 284.8431 15.30194987103426

JSON: /api/v1/satellites/60270 · /tle

For live sub-satellite position, see the globe view (requires WebGL).

§ Visibility from observer

Set your observer location to see the next 7 days of passes ≥ 10°. The values pass through the URL so the page stays shareable.

No JS? Fill the form by hand. The geolocation button needs JavaScript.